Tracking 19644 objects as of 26-Apr-2019
HD Live streaming from Space Station
objects crossing your sky now

EUTE 12 WEST A (AB 1)

Track EUTE 12 WEST A (AB 1) now!
EUTE 12 WEST A (AB 1) is classified as:


NORAD ID: 27508
Int'l Code: 2002-040A
Perigee: 36,324.2 km
Apogee: 36,391.9 km
Inclination: 0.7 °
Period: 1,465.0 minutes
Semi major axis: 42729 km
RCS: 16.1652 m2 (large)
Launch date: August 28, 2002
Source: European Telecommunications Satellite Organization (EUTE)
Launch site: FRENCH GUIANA (FRGUI)

Twenty channels, telecommunications services between Europe and the Americas.
aabbcc
Your satellite tracking list
Your tracking list is empty




NASA's NSSDC Master Catalog

Two Line Element Set (TLE):
1 27508U 02040A   19116.16833674 -.00000003  00000-0  00000+0 0  9997
2 27508   0.7491  90.5288 0007925 283.8283 154.2333  0.98291890 61053
Source of the keplerian elements: AFSPC